Location: Newark
(44.6394°N, 22.2943°E)
Time: 08:27:43
(UTC+00:00)

FO-29 - Pass Details

Date: 12 December 2023
Orbit: 799 x 1322 km, 98.6° (Epoch: 25 February)

Event Time Altitude Azimuth Distance (km) Brightness Sun altitude
Rises 02:40:16 0° 8° (N) 4,243 12.9 -34.2°
Reaches altitude 10° 02:43:06 10° 1° (N) 3,310 12.2 -33.7°
Enters shadow 02:45:03 19° 353° (N) 2,727 11.7 -33.3°
